Simultaneous Nadir Overpasses (SNOs) Predictions

Prediction of SNOs between AQUA and GOES-15 Satellite Orbit:

Table of predicted SNOs for the next 14.0 days since TLE Epoch: 3/2/2024
Index Date Time (AQUA) AQUA Lat,Lon GOES-15 Lat,Lon Distance(km) Time Diff (sec)
1 03/03/2024 09:59:04 -0.07, 61.06 -0.04, 61.32 28.22 80
2 03/05/2024 09:43:21 0.74, 64.91 -0.05, 61.31 409.22 53
3 03/05/2024 22:03:41 0.34, 59.99 0.05, 61.23 142.08 80
4 03/07/2024 21:47:58 -0.52, 63.82 0.06, 61.24 294.97 80
5 03/08/2024 10:08:26 -0.56, 58.87 -0.06, 61.31 277.64 80
6 03/10/2024 09:52:41 0.22, 62.72 -0.06, 61.32 159.58 80
7 03/10/2024 22:13:01 0.83, 57.80 0.07, 61.24 391.71 80
8 03/12/2024 21:57:16 -0.00, 61.65 0.06, 61.25 45.55 80
9 03/14/2024 21:41:31 -0.87, 65.49 0.06, 61.26 482.44 80
10 03/15/2024 10:01:59 -0.23, 60.55 -0.07, 61.34 90.10 80
